Date String (YYYY-MM-DD hh:mm:ss) UTC,Instrument flags,Ambient pressure (hPa),Sample flow (lpm),Bypass flow (lpm),Sample temperature (°C),Ambient temperature (°C),ASC tube jacket temperature (°C),LED temperature (°C),Box temperature (°C),Sample RH (%),Span deviation,Mass concentration (μg/m³),Mass concentration (μg/m³),Mass concentration (μg/m³)
DateTimeUTC,F1_M11,P_M11,Q1_M11,Q2_M11,T1_M11,T2_M11,T3_M11,T4_M11,T5_M11,U1_M11,ZSPAN_M11,X2_M11,X0_M11,X1_M11
2021-11-25 01:00:00,,0834.1,4.99,0.00,22.0,21.6,00.0,31.0,23.7,14.4,0000.0,0004.31,0010.65,0003.78
2021-11-25 01:01:00,,0834.1,4.98,0.00,21.9,21.5,00.0,31.0,23.6,14.4,0000.0,0004.29,0010.72,0003.80
2021-11-25 01:02:00,,0834.1,5.00,0.00,21.9,21.4,00.0,31.0,23.6,14.5,0000.0,0004.30,0010.98,0003.82
2021-11-25 01:03:00,,0834.1,5.00,0.00,21.9,21.3,00.0,31.0,23.6,14.5,0000.0,0004.30,0011.07,0003.83
2021-11-25 01:04:00,,0834.1,5.02,0.00,21.9,21.3,00.0,31.0,23.6,14.6,0000.0,0004.31,0011.49,0003.85
2021-11-25 01:05:00,,0834.1,5.00,0.00,21.9,21.2,00.0,30.9,23.6,14.7,0000.0,0004.32,0011.88,0003.86
2021-11-25 01:06:00,,0834.1,5.00,0.00,21.9,21.2,00.0,30.9,23.5,14.8,0000.0,0004.35,0012.03,0003.87
2021-11-25 01:07:00,,0834.1,5.01,0.00,21.8,21.2,00.0,30.9,23.5,14.9,0000.0,0004.40,0012.39,0003.87
2021-11-25 01:08:00,,0834.1,4.99,0.00,21.8,21.2,00.0,30.9,23.5,14.9,0000.0,0004.45,0012.09,0003.89
2021-11-25 01:09:00,,0834.1,5.01,0.00,21.8,21.2,00.0,30.9,23.5,15.0,0000.0,0004.49,0011.86,0003.90
2021-11-25 01:10:00,,0834.3,4.98,0.00,21.8,21.2,00.0,30.9,23.5,15.1,0000.0,0004.53,0012.09,0003.91
2021-11-25 01:11:00,,0834.1,5.01,0.00,21.8,21.1,00.0,30.9,23.4,15.2,0000.0,0004.53,0011.60,0003.93
2021-11-25 01:12:00,,0834.2,4.99,0.00,21.8,21.1,00.0,30.9,23.4,15.2,0000.0,0004.56,0011.35,0003.93
2021-11-25 01:13:00,,0834.2,5.00,0.00,21.8,21.1,00.0,30.9,23.4,15.3,0000.0,0004.58,0011.11,0003.94
2021-11-25 01:14:00,,0834.2,4.99,0.00,21.7,21.1,00.0,30.9,23.4,15.3,0000.0,0004.64,0010.78,0003.97
2021-11-25 01:15:00,,0834.3,5.01,0.00,21.7,21.1,00.0,30.9,23.4,15.4,0000.0,0004.70,0010.40,0003.99
2021-11-25 01:16:00,,0834.3,5.00,0.00,21.7,21.1,00.0,30.9,23.4,15.4,0000.0,0004.72,0010.68,0004.00
2021-11-25 01:17:00,,0834.3,5.01,0.00,21.7,21.1,00.0,30.8,23.4,15.4,0000.0,0004.74,0010.94,0004.02
2021-11-25 01:18:00,,0834.4,4.99,0.00,21.7,21.1,00.0,30.8,23.4,15.4,0000.0,0004.73,0011.68,0004.03
2021-11-25 01:19:00,,0834.4,5.00,0.00,21.7,21.1,00.0,30.8,23.4,15.4,0000.0,0004.70,0011.62,0004.04
2021-11-25 01:20:00,,0834.4,5.00,0.00,21.7,21.1,00.0,30.8,23.4,15.5,0000.0,0004.69,0011.54,0004.05
2021-11-25 01:21:00,,0834.5,5.00,0.00,21.7,21.1,00.0,30.8,23.4,15.5,0000.0,0004.68,0011.89,0004.06
2021-11-25 01:22:00,,0834.5,4.99,0.00,21.7,21.1,00.0,30.8,23.4,15.5,0000.0,0004.71,0012.65,0004.06
2021-11-25 01:23:00,,0834.6,5.02,0.00,21.7,21.0,00.0,30.8,23.4,15.6,0000.0,0004.73,0013.22,0004.08
2021-11-25 01:24:00,,0834.6,4.99,0.00,21.7,21.0,00.0,30.8,23.3,15.7,0000.0,0004.76,0013.77,0004.09
2021-11-25 01:25:00,,0834.6,5.00,0.00,21.7,21.0,00.0,30.8,23.3,15.7,0000.0,0004.78,0013.64,0004.10
2021-11-25 01:26:00,,0834.6,5.02,0.00,21.6,21.0,00.0,30.8,23.3,15.8,0000.0,0004.81,0013.60,0004.12
2021-11-25 01:27:00,,0834.6,4.99,0.00,21.6,21.0,00.0,30.8,23.3,15.8,0000.0,0004.83,0013.20,0004.14
2021-11-25 01:28:00,,0834.6,5.00,0.00,21.6,21.0,00.0,30.8,23.3,15.8,0000.0,0004.83,0012.90,0004.15
2021-11-25 01:29:00,,0834.6,5.00,0.00,21.6,21.0,00.0,30.7,23.3,15.8,0000.0,0004.84,0012.01,0004.17
2021-11-25 01:30:00,,0834.6,5.01,0.00,21.6,21.0,00.0,30.7,23.3,15.8,0000.0,0004.88,0011.63,0004.19
2021-11-25 01:31:00,,0834.6,4.99,0.00,21.7,21.4,00.0,30.8,23.4,15.8,0000.0,0004.93,0011.59,0004.20
2021-11-25 01:32:00,,0834.7,5.01,0.00,21.8,22.2,00.0,30.8,23.7,15.7,0000.0,0004.93,0010.84,0004.21
2021-11-25 01:33:00,,0834.6,5.00,0.00,21.9,22.7,00.0,30.9,24.0,15.6,0000.0,0004.94,0010.09,0004.22
2021-11-25 01:34:00,,0834.6,4.99,0.00,22.0,22.5,00.0,30.9,24.0,15.6,0000.0,0004.91,0009.27,0004.22
2021-11-25 01:35:00,,0834.6,5.01,0.00,22.0,22.2,00.0,30.9,24.0,15.6,0000.0,0004.88,0008.86,0004.22
2021-11-25 01:36:00,,0834.6,5.01,0.00,22.0,22.0,00.0,30.9,23.9,15.6,0000.0,0004.92,0009.34,0004.23
2021-11-25 01:37:00,,0834.6,4.99,0.00,22.0,21.9,00.0,30.9,23.8,15.6,0000.0,0004.91,0009.75,0004.23
2021-11-25 01:38:00,,0834.7,4.99,0.00,22.0,21.8,00.0,30.9,23.8,15.6,0000.0,0004.90,0009.70,0004.23
2021-11-25 01:39:00,,0834.7,5.01,0.00,22.0,21.7,00.0,30.9,23.8,15.6,0000.0,0004.91,0010.09,0004.24
2021-11-25 01:40:00,,0834.7,5.00,0.00,22.0,21.6,00.0,30.9,23.7,15.6,0000.0,0004.93,0010.70,0004.25
2021-11-25 01:41:00,,0834.7,5.00,0.00,22.0,21.6,00.0,31.0,23.7,15.7,0000.0,0004.93,0010.77,0004.26
2021-11-25 01:42:00,,0834.7,5.00,0.00,22.0,21.5,00.0,31.0,23.7,15.7,0000.0,0004.92,0010.65,0004.27
2021-11-25 01:43:00,,0834.7,5.01,0.00,22.0,21.5,00.0,31.0,23.7,15.8,0000.0,0004.96,0010.73,0004.28
2021-11-25 01:44:00,,0834.7,4.99,0.00,22.0,21.5,00.0,31.0,23.7,15.8,0000.0,0004.98,0010.93,0004.28
2021-11-25 01:45:00,,0834.7,4.99,0.00,22.0,21.4,00.0,31.0,23.7,15.9,0000.0,0005.02,0011.91,0004.30
2021-11-25 01:46:00,,0834.7,5.01,0.00,22.0,21.4,00.0,31.0,23.7,15.9,0000.0,0005.05,0012.03,0004.33
2021-11-25 01:47:00,,0834.7,5.00,0.00,21.9,21.4,00.0,31.0,23.7,15.9,0000.0,0005.04,0011.85,0004.35
2021-11-25 01:48:00,,0834.6,4.99,0.00,21.9,21.4,00.0,31.0,23.7,16.0,0000.0,0005.03,0012.17,0004.37
2021-11-25 01:49:00,,0834.7,5.01,0.00,21.9,21.4,00.0,31.0,23.6,16.0,0000.0,0005.02,0013.09,0004.38
2021-11-25 01:50:00,,0834.7,5.00,0.00,21.9,21.3,00.0,31.0,23.7,16.0,0000.0,0005.04,0012.47,0004.41
2021-11-25 01:51:00,,0834.7,5.01,0.00,21.9,21.3,00.0,31.0,23.7,16.1,0000.0,0005.04,0012.31,0004.42
2021-11-25 01:52:00,,0834.8,4.99,0.00,21.9,21.3,00.0,31.0,23.7,16.1,0000.0,0005.05,0012.31,0004.42
2021-11-25 01:53:00,,0834.9,5.00,0.00,21.9,21.3,00.0,31.0,23.7,16.1,0000.0,0005.09,0012.85,0004.47
2021-11-25 01:54:00,,0834.8,4.99,0.00,21.9,21.3,00.0,31.0,23.6,16.1,0000.0,0005.11,0013.31,0004.51
2021-11-25 01:55:00,,0834.9,5.01,0.00,21.9,21.3,00.0,31.0,23.7,16.1,0000.0,0005.09,0013.58,0004.52
2021-11-25 01:56:00,,0834.9,4.99,0.00,21.9,21.3,00.0,31.0,23.7,16.2,0000.0,0005.06,0012.58,0004.52
2021-11-25 01:57:00,,0835.0,4.99,0.00,21.9,21.3,00.0,30.9,23.7,16.2,0000.0,0005.07,0012.92,0004.52
2021-11-25 01:58:00,,0835.0,5.01,0.00,21.9,21.3,00.0,30.9,23.7,16.2,0000.0,0005.06,0013.37,0004.51
2021-11-25 01:59:00,,0835.0,5.00,0.00,21.9,21.3,00.0,30.9,23.7,16.2,0000.0,0005.07,0013.81,0004.50
